Location: Unspecified
(0.0000°N, 0.0000°E)
Time: 19:17:25
(UTC+00:00)

Vanguard 3 - Pass Details

Date: 16 December 2017
Orbit: 508 x 3264 km, 33.4° (Epoch: 15 January)

Event Time Altitude Azimuth Distance (km) Brightness Sun altitude
Rises 17:41:40 0° 332° (NNW) 3,057 10.2 3.3°
Reaches altitude 10° 17:43:59 10° 345° (NNW) 2,365 9.5 2.7°
Maximum altitude 17:48:44 27° 44° (NE) 1,912 8.6 1.6°
Drops below altitude 10° 17:55:58 10° 98° (E) 3,740 10.0 0.0°
Sets 18:00:43 0° 108° (ESE) 5,266 10.8 -1.1°
